Location: F?ge?el
(45.8833°N, 22.5833°E)
Time: 06:17:23
(UTC+00:00)

COSMO-SKYMED 1 - Pass Details

Date: 17 November 2025
Orbit: 579 x 581 km, 97.9° (Epoch: 04 December)

Event Time Altitude Azimuth Distance (km) Brightness Sun altitude
Exits shadow 17:20:48 35° 345° (NNW) 952 3.5 -25.0°
Maximum altitude 17:22:15 54° 287° (WNW) 709 3.1 -25.3°
Drops below altitude 10° 17:26:15 10° 211° (SSW) 1,890 5.4 -25.9°
Sets 17:28:25 0° 206° (SSW) 2,785 6.3 -26.3°
